Date,TemperatureHighF,TemperatureAvgF,TemperatureLowF,DewpointHighF,DewpointAvgF,DewpointLowF,HumidityHigh,HumidityAvg,HumidityLow,PressureMaxIn,PressureMinIn,WindSpeedMaxMPH,WindSpeedAvgMPH,GustSpeedMaxMPH,PrecipitationSumIn
2012-9-29,73.8,68.9,64.0,55.1,50.9,45.1,71,54,43,30.12,29.94,18,2,18,0.00
2012-9-30,73.2,64.9,59.7,55.2,48.8,43.1,79,58,35,30.15,29.97,9,4,9,0.00
2012-10-1,71.1,63.8,58.6,54.4,48.0,41.8,76,57,46,30.15,29.97,10,2,10,0.01
2012-10-2,67.3,62.1,57.9,61.3,58.7,54.4,96,89,76,30.09,29.97,10,2,10,0.29
2012-10-3,67.5,58.0,48.6,56.8,48.9,41.8,96,75,44,30.09,30.00,17,4,17,0.33
2012-10-4,70.2,56.4,45.5,53.1,46.4,42.4,96,72,39,30.12,29.94,7,1,7,0.00
2012-10-5,66.6,57.3,50.5,52.5,38.6,30.2,83,51,30,30.18,30.00,15,5,15,0.00
2012-10-6,72.1,57.4,47.1,49.3,45.7,40.9,88,67,43,30.18,29.97,10,2,10,0.00
2012-10-7,69.3,57.1,48.0,58.0,48.8,33.5,94,76,44,30.00,29.77,20,3,20,0.05
2012-10-8,56.1,48.0,38.3,39.9,33.6,28.4,82,59,38,30.15,30.00,18,6,18,0.05
2012-10-9,60.6,47.5,35.8,40.5,34.5,31.5,93,64,36,30.06,29.83,13,2,13,0.00
2012-10-10,57.9,49.8,39.6,38.7,32.1,28.2,81,52,35,29.97,29.83,10,3,10,0.00
2012-10-11,57.7,46.3,37.8,35.3,31.3,27.7,79,58,35,30.00,29.88,12,3,12,0.00
2012-10-12,55.2,49.7,41.5,37.3,34.8,32.0,76,57,43,30.00,29.88,11,4,11,0.00
2012-10-13,61.3,53.5,46.0,45.2,40.7,34.9,75,62,49,30.03,29.88,8,2,8,0.00
2012-10-14,54.9,53.2,50.7,51.8,46.3,40.3,90,78,66,29.88,29.77,6,2,6,0.00
2012-10-15,64.6,58.7,54.9,57.5,52.7,49.0,97,81,61,29.85,29.71,13,4,13,0.00
2012-10-16,60.1,54.0,46.9,59.5,52.1,40.8,98,93,80,30.00,29.74,15,6,15,0.21
2012-10-17,60.1,49.8,42.3,48.1,42.4,39.4,96,77,49,30.21,29.97,9,3,9,0.23
2012-10-18,63.1,54.0,47.8,47.5,42.1,35.5,93,66,38,30.27,30.15,14,5,14,0.00
2012-10-19,65.5,55.0,45.1,46.9,42.5,37.4,82,63,47,30.21,30.09,8,3,8,0.00
2012-10-20,68.0,57.0,49.1,49.3,45.5,40.8,81,66,47,30.15,30.09,6,2,6,0.00
2012-10-21,66.0,54.0,44.6,51.1,44.4,40.7,95,72,46,30.21,30.09,7,2,7,0.00
2012-10-22,65.3,51.5,42.4,53.6,44.2,39.4,98,78,48,30.21,30.15,6,1,6,0.00
2012-10-23,66.0,53.1,43.7,54.8,45.5,39.9,98,77,50,30.24,30.15,7,2,7,0.00
2012-10-24,55.4,47.1,39.4,46.2,41.4,35.8,96,81,68,30.21,30.06,7,2,7,0.00
2012-10-25,51.4,48.5,46.9,43.7,40.5,38.1,85,74,61,30.09,29.85,9,4,9,0.00
2012-10-26,54.5,47.7,39.4,46.3,39.5,35.1,93,74,54,29.91,29.65,13,3,13,0.07
2012-10-27,56.5,49.2,41.0,55.4,47.0,38.4,98,92,85,29.65,29.24,13,5,13,0.36
2012-10-28,40.8,38.1,35.4,38.7,35.2,30.3,95,89,81,29.83,29.35,15,5,15,0.19
2012-10-29,38.5,35.9,33.3,37.3,33.9,28.9,97,92,82,29.88,29.77,8,4,8,0.20
2012-10-30,43.5,36.9,30.2,30.0,26.6,21.9,87,68,44,29.94,29.83,13,4,13,0.20
2012-10-31,43.9,37.6,31.6,33.7,29.5,23.9,84,73,57,30.00,29.85,12,4,12,0.00
2012-11-1,50.7,42.9,36.9,50.2,37.6,22.9,98,83,55,29.88,29.41,23,8,23,0.18
2012-11-2,55.0,46.5,34.9,51.9,42.9,31.7,98,88,66,29.91,29.53,12,3,12,0.18
2012-11-3,48.9,42.5,34.2,48.0,41.2,31.3,98,95,88,30.00,29.88,10,2,10,0.00
2012-11-4,64.0,53.6,44.2,55.6,47.2,43.7,98,81,54,29.91,29.68,15,3,15,0.01
2012-11-5,57.2,51.1,41.9,53.5,43.9,33.5,94,77,64,29.80,29.41,17,6,17,0.17
2012-11-6,53.6,44.7,38.3,40.0,32.3,27.5,88,64,40,30.15,29.77,20,5,20,0.17
2012-11-7,47.8,42.3,31.8,35.7,30.5,25.4,86,64,44,30.33,30.09,18,6,18,0.00
2012-11-8,56.1,46.8,40.3,38.3,35.3,32.8,79,65,42,30.33,30.06,13,4,13,0.00
2012-11-9,54.0,44.2,35.4,38.9,34.0,30.0,83,69,46,30.24,30.03,16,3,16,0.00
2012-11-10,46.0,40.5,33.6,41.9,36.8,29.8,98,87,73,30.24,30.09,12,5,12,0.00
2012-11-11,52.3,46.2,39.9,39.4,36.3,32.4,88,69,50,30.15,30.06,14,6,14,0.00
2012-11-12,50.9,47.3,44.6,45.2,41.9,37.0,94,82,71,30.33,30.12,7,2,7,0.06
2012-11-13,52.9,48.6,44.8,50.6,44.8,33.7,98,87,64,30.50,30.27,7,2,7,0.02
2012-11-14,49.3,41.5,32.9,33.9,29.8,27.3,87,65,44,30.50,30.42,8,2,8,0.02
2012-11-15,45.3,40.2,37.2,42.4,37.1,31.1,96,89,75,30.44,30.30,6,1,6,0.00
2012-11-16,49.6,44.3,39.7,39.7,36.3,33.1,86,74,54,30.33,30.24,8,2,8,0.00
2012-11-17,46.0,41.9,38.1,40.4,36.5,33.1,88,81,69,30.27,30.09,10,5,10,0.00
2012-11-18,47.1,44.2,39.9,41.2,38.6,36.4,89,81,70,30.12,30.03,11,5,11,0.00
2012-11-19,49.5,45.2,39.0,40.7,38.2,35.1,86,77,63,30.21,30.09,6,2,6,0.00
2012-11-20,50.2,41.0,34.7,44.7,36.7,32.3,98,85,66,30.27,30.15,7,1,7,0.00
2012-11-21,50.2,44.0,36.3,42.7,38.5,33.5,96,82,60,30.27,30.21,7,2,7,0.00
2012-11-22,47.3,45.1,42.8,40.9,39.3,37.3,88,80,69,30.33,30.21,6,2,6,0.01
2012-11-23,45.7,44.8,43.9,44.7,43.6,40.9,98,96,89,30.33,30.21,6,2,6,0.04
2012-11-24,49.1,46.1,40.1,48.4,44.5,37.7,98,94,85,30.30,30.21,5,1,5,0.00
2012-11-25,46.9,44.0,41.9,46.2,42.3,40.1,98,94,84,30.27,30.15,8,2,8,0.00
2012-11-26,48.6,44.7,42.4,45.2,43.3,41.2,98,95,85,30.21,29.94,12,5,12,0.00
2012-11-27,58.5,48.6,42.1,48.0,41.6,38.8,98,78,51,29.94,29.80,10,3,10,0.00
2012-11-28,50.4,47.5,43.0,43.0,40.4,37.9,87,76,64,29.85,29.50,13,5,13,0.00
2012-11-29,59.2,49.6,41.7,52.0,41.7,27.3,98,76,49,29.50,29.29,14,6,14,0.05
2012-11-30,44.2,40.7,38.1,28.5,27.3,25.6,67,59,51,29.85,29.47,13,5,13,0.05
2012-12-1,42.4,36.4,30.7,28.9,24.7,21.4,79,63,47,30.06,29.85,9,3,9,0.00
2012-12-2,36.3,35.0,33.3,35.1,32.4,28.2,97,90,78,30.03,29.68,10,4,10,0.23
2012-12-3,36.0,33.2,28.6,32.8,24.4,16.0,98,72,51,29.88,29.68,22,7,22,0.11
2012-12-4,36.3,30.7,22.8,30.7,24.2,16.0,92,77,58,29.88,29.56,7,2,7,0.00
2012-12-5,35.2,31.7,26.2,33.0,29.5,23.5,94,92,87,29.77,29.53,7,1,7,0.00
2012-12-6,28.9,25.2,23.2,25.5,20.7,13.8,92,83,57,30.00,29.74,15,2,15,0.00
2012-12-7,29.5,24.9,20.3,15.7,14.1,11.9,72,63,51,30.03,29.91,13,3,13,0.00
2012-12-8,27.1,24.2,20.7,14.6,11.6,7.8,74,59,45,30.09,29.91,15,8,15,0.00
2012-12-9,30.2,24.7,15.4,10.5,7.9,4.9,66,49,43,30.06,29.91,17,7,17,0.00
2012-12-10,28.6,25.1,16.2,19.7,15.7,7.1,80,67,55,29.94,29.80,9,2,9,0.00
2012-12-11,28.4,25.3,22.6,21.7,17.4,13.2,82,72,60,29.97,29.83,11,4,11,0.00
2012-12-12,28.9,24.9,20.5,16.9,14.0,8.8,70,63,56,30.09,29.97,16,8,16,0.00
2012-12-13,28.2,22.4,16.2,14.9,11.1,7.3,76,62,53,30.21,30.09,10,4,10,0.00
2012-12-14,31.1,26.3,21.6,23.0,18.0,12.3,76,71,62,30.21,30.03,13,6,13,0.00
2012-12-15,35.8,33.4,30.4,34.8,29.3,21.1,98,86,66,30.06,29.80,13,4,13,0.61
2012-12-16,36.0,34.3,32.7,35.5,33.8,32.2,98,98,98,29.97,29.85,6,2,6,0.02
2012-12-17,35.1,34.1,33.3,34.6,33.6,32.8,98,98,98,29.97,29.85,10,4,10,0.03
2012-12-18,38.3,36.1,34.3,37.8,35.6,33.8,98,98,98,30.03,29.85,8,3,8,0.06
2012-12-19,40.6,37.2,34.3,38.3,34.0,26.4,98,89,67,30.15,29.97,8,4,8,0.07
2012-12-20,37.9,32.4,25.2,34.6,28.3,22.9,95,85,69,30.15,30.03,7,1,7,0.00
2012-12-21,27.5,23.9,18.7,25.2,21.4,15.2,93,90,86,30.09,29.97,5,1,5,0.00
2012-12-22,29.1,27.1,24.8,25.5,24.1,22.5,93,88,84,30.21,30.03,6,2,6,0.00
2012-12-23,30.9,28.9,28.0,29.1,25.1,23.0,93,86,80,30.18,30.03,10,4,10,0.00
2012-12-24,33.1,31.3,30.4,32.1,30.2,28.8,98,96,93,30.09,29.97,7,2,7,0.00
2012-12-25,34.9,32.8,30.6,34.4,32.3,30.1,98,98,98,30.03,29.85,7,3,7,0.00
2012-12-26,38.7,36.3,33.8,38.1,35.8,33.3,98,98,98,30.03,29.88,7,1,7,0.23
2012-12-27,45.1,38.1,31.8,44.6,37.5,31.3,98,98,97,30.03,29.85,14,4,14,0.01
2012-12-28,42.1,37.7,32.2,41.6,35.5,26.4,98,92,79,30.39,29.85,10,3,10,0.00
2012-12-29,32.4,29.1,26.6,26.4,20.8,17.1,79,71,66,30.44,30.39,11,4,11,0.00